Location: Fort Worth, Tx
(32.7431°N, 97.3695°W)
Time: 11:02:07
(UTC-04:00)

A-11 Canister half - Pass Details

Date: 16 August 2024
Orbit: 1524 x 1684 km, 47.3° (Epoch: 13 September)

Event Time Altitude Azimuth Distance (km) Brightness Sun altitude
Rises 05:58:05 0° 306° (NW) 4,939 11.5 -22.8°
Reaches altitude 10° 06:01:20 10° 310° (NW) 3,943 11.0 -22.2°
Maximum altitude 06:11:25 66° 32° (NNE) 1,781 9.5 -20.5°
Drops below altitude 10° 06:21:12 10° 114° (ESE) 3,838 11.5 -18.7°
Sets 06:24:19 0° 117° (ESE) 4,801 12.1 -18.1°
